Terminal Aerodrome Forecast
Issued by NWS Tiyan, Guam

Home | Current Version | Previous Version | Text Only | Print | Product List | Glossary On
Versions: 1 2 3 4 5 6 7 8 9 10 11 12 13 14 15 16 17 18 19 20 21 22 23 24 25 26 27 28
000
FTPQ31 PGUM 210100 AAA
TAFPQ
TAF AMD
PGUM 210141Z 2102/2206 05007KT P6SM VCTS SCT020CB SCT120
      TEMPO 2102/2104 5SM -TSRA SCT016CB BKN030
     FM210600 07007KT P6SM VCSH SCT018 SCT040 BKN120=

USA.gov is the U.S. government's official web portal to all federal, state and local government web resources and services.